Regional Weather Roundup
Issued by NWS Midland/Odessa, TX

Skip options and go directly to product.
Home | Oldest Version | Next Version | Current Version | All | Text Only | Save Text | Print | Product List | Glossary On

Skip product version selection by date and time.   
493
ASUS44 KMAF 051301
RWRMAF
MIDLAND AREA WEATHER ROUNDUP
NATIONAL WEATHER SERVICE MIDLAND TX
800 AM CDT TUE MAY 05 2015

...IN SOUTHWEST TEXAS AND SOUTHEAST NEW MEXICO...

CITY           SKY/WX    TMP DP  RH WIND       PRES   REMARKS
ALPINE         CLEAR     56  53  89 W7        30.02R
ANDREWS        TSTM      56  56 100 N12       29.90R
ARTESIA        CLEAR     55  55 100 W5        29.92R
BIG SPRING     CLOUDY    64  61  90 SE15      29.91R
CARLSBAD       CLEAR     59  56  89 CALM      29.90R
DRYDEN           N/A     69  64  84 SE14G21   29.87R
FORT STOCKTON  SUNNY     64  60  87 S9        29.88R
GUAD PASS      NOT AVBL
HOBBS          MOSUNNY   55  55 100 E6        29.90R
MARFA          CLEAR     50  48  93 CALM      30.00R
MIDLAND AIRPK  CLOUDY    65  64  96 SE12G17   29.88R
MIDLAND INTL   CLOUDY    65  62  90 S16       29.87R
ODESSA         LGT RAIN  64  61  90 S17G25    29.87R FOG
PECOS          SUNNY     60  56  88 W8        29.87R
PRESIDIO       FAIR      66  42  40 W5        29.90R
SEMINOLE       RAIN      55  55  98 SE8       29.91R
SNYDER         CLOUDY    62  60  92 SE15G24   29.89F
WINK           MOSUNNY   64  59  83 W8        29.84R
$$
...OTHER STATIONS IN TEXAS...

CITY           SKY/WX    TMP DP  RH WIND       PRES   REMARKS
ABILENE        CLOUDY    66  59  78 S14       29.95R
AMARILLO       HVY RAIN  56  55  97 NE8       29.89S FOG
AUSTIN         CLOUDY    67  66  97 SE9       29.99S
BROWNSVILLE    MOSUNNY   76  71  85 SE12      29.92R
CORPUS CHRISTI CLOUDY    74  69  85 SE16      29.93R
DALLAS FTW     PTSUNNY   65  61  87 SE13      30.03R
DEL RIO        LGT RAIN  69  66  90 SE15      29.88R
EL PASO        PTCLDY    60  42  51 W12       29.94R
HOUSTON INT    PTSUNNY   73  70  90 SE10      30.02R
LUBBOCK        TSTM      56  53  90 NW30G39   29.90R FOG
SAN ANGELO     CLOUDY    69  59  70 SE10      29.91R
SAN ANTONIO    CLOUDY    71  66  84 SE15      29.97R
WACO           CLOUDY    65  62  90 SE13      30.02R
WICHITA FALLS  NOT AVBL
$$
...OTHER LOCATIONS IN NEW MEXICO...

CITY           SKY/WX    TMP DP  RH WIND       PRES   REMARKS
ALAMAGORDO     CLOUDY    50  50 100 S5        29.94R
ALBUQUERQUE    MOCLDY    51  48  89 S8        29.96R
CANNON AFB     LGT RAIN  53  53 100 SE6       29.93R
CLOVIS         CLOUDY    54  52  94 CALM      29.94R
HOLLOMAN AFB   NOT AVBL
ROSWELL        CLEAR     56  54  93 SW5       29.89R
RUIDOSO        CLEAR     43  39  87 SW5       30.00S
SANTA FE       CLOUDY    47  42  83 CALM      29.97R
TRUTH OR CONSE CLOUDY    52  41  66 W6        29.95R
TUCUMCARI      CLOUDY    55  53  93 E3        29.90F
$$

USA.gov is the U.S. government's official web portal to all federal, state and local government web resources and services.